USA 325

Last updated on Tue Sep 17 2024 00:02:43 GMT+0000 (Coordinated Universal Time)

1 51281U 22006B 24260.12966039 -.00000015 00000+0 00000+0 0 9992 2 51281 0.5595 86.6072 0000566 166.9692 218.8866 1.00115184 9726
UTC large
Height (km)
Speed (km/s)
/
Latitude / Longitude
Inclination (degrees)
Orbital Period (minutes)
Azimuth
Elevation
Range (km)
Doppler Factor

Next 0 passes for location: London (51.5072 / 0.1276)

Sorry there are no passes over London.